H1 CPF 1 NER 2011 12 28 9 8621 glonass123 H2 1004102 9123 37138 2011 12 28 0 0 0 2011 12 31 23 45 0 900 1 1 0 0 0 H9 10 0 55923 0.00000 0 -6640353.760 23119115.425 -8255263.236 10 0 55923 900.00000 0 -6393885.163 21934053.070 -11186810.290 10 0 55923 1800.00000 0 -6229161.436 20386197.269 -13899278.839 10 0 55923 2700.00000 0 -6194030.344 18513575.870 -16339850.759 10 0 55923 3600.00000 0 -6328667.655 16364942.156 -18461183.453 10 0 55923 4500.00000 0 -6663687.579 13997851.294 -20222323.344 10 0 55923 5400.00000 0 -7218680.181 11476387.900 -21589480.221 10 0 55923 6300.00000 0 -8001235.823 8868643.415 -22536649.342 10 0 55923 7200.00000 0 -9006494.680 6244051.397 -23046072.202 10 0 55923 8100.00000 0 -10217236.545 3670692.908 -23108530.793 10 0 55923 9000.00000 0 -11604503.176 1212683.619 -22723473.790 10 0 55923 9900.00000 0 -13128723.345 -1072250.799 -21898976.366 10 0 55923 10800.00000 0 -14741290.539 -3134914.000 -20651538.319 10 0 55923 11700.00000 0 -16386525.431 -4936408.892 -19005727.685 10 0 55923 12600.00000 0 -18003940.493 -6449470.030 -16993679.283 10 0 55923 13500.00000 0 -19530712.938 -7659308.702 -14654459.422 10 0 55923 14400.00000 0 -20904264.727 -8563940.750 -12033309.661 10 0 55923 15300.00000 0 -22064844.885 -9173987.805 -9180783.839 10 0 55923 16200.00000 0 -22958009.945 -9511963.423 -6151793.793 10 0 55923 17100.00000 0 -23536902.775 -9611075.743 -3004580.057 10 0 55923 18000.00000 0 -23764238.157 -9513597.017 200375.147 10 0 55923 18900.00000 0 -23613915.132 -9268867.289 3401474.718 10 0 55923 19800.00000 0 -23072190.643 -8931013.785 6537154.878 10 0 55923 20700.00000 0 -22138366.053 -8556478.809 9547035.726 10 0 55923 21600.00000 0 -20824957.120 -8201456.806 12373055.062 10 0 55923 22500.00000 0 -19157338.145 -7919345.252 14960566.225 10 0 55923 23400.00000 0 -17172871.788 -7758314.129 17259380.765 10 0 55923 24300.00000 0 -14919556.556 -7759094.772 19224737.174 10 0 55923 25200.00000 0 -12454243.468 -7953080.958 20818177.514 10 0 55923 26100.00000 0 -9840491.320 -8360823.397 22008314.540 10 0 55923 27000.00000 0 -7146145.327 -8990983.650 22771473.248 10 0 55923 27900.00000 0 -4440736.156 -9839795.423 23092192.251 10 0 55923 28800.00000 0 -1792805.175 -10891060.744 22963572.325 10 0 55923 29700.00000 0 732733.947 -12116686.490 22387461.856 10 0 55923 30600.00000 0 3077087.116 -13477743.978 21374471.668 10 0 55923 31500.00000 0 5189819.541 -14926011.635 19943814.957 10 0 55923 32400.00000 0 7030747.163 -16405939.369 18122971.661 10 0 55923 33300.00000 0 8571397.330 -17856953.953 15947180.545 10 0 55923 34200.00000 0 9795973.908 -19216008.584 13458766.508 10 0 55923 35100.00000 0 10701783.209 -20420267.698 10706314.923 10 0 55923 36000.00000 0 11299100.498 -21409810.819 7743708.990 10 0 55923 36900.00000 0 11610481.653 -22130237.144 4629050.205 10 0 55923 37800.00000 0 11669549.553 -22535056.111 1423485.442 10 0 55923 38700.00000 0 11519308.601 -22587758.192 -1810033.005 10 0 55923 39600.00000 0 11210062.217 -22263474.261 -5008025.886 10 0 55923 40500.00000 0 10797026.170 -21550150.401 -8107774.493 10 0 55923 41400.00000 0 10337744.121 -20449187.007 -11048587.617 10 0 55923 42300.00000 0 9889420.161 -18975515.416 -13773019.152 10 0 55923 43200.00000 0 9506286.059 -17157110.528 -16228009.584 10 0 55923 44100.00000 0 9237118.290 -15033963.013 -18365927.149 10 0 55923 45000.00000 0 9123012.022 -12656558.219 -20145487.696 10 0 55923 45900.00000 0 9195506.591 -10083929.797 -21532536.105 10 0 55923 46800.00000 0 9475140.411 -7381373.439 -22500676.007 10 0 55923 47700.00000 0 9970493.608 -4617919.365 -23031738.538 10 0 55923 48600.00000 0 10677755.048 -1863670.821 -23116084.764 10 0 55923 49500.00000 0 11580827.737 812880.401 -22752740.049 10 0 55923 50400.00000 0 12651963.971 3347451.028 -21949361.927 10 0 55923 51300.00000 0 13852899.844 5682371.024 -20722045.995 10 0 55923 52200.00000 0 15136438.801 7768700.295 -19094976.914 10 0 55923 53100.00000 0 16448416.292 9567974.486 -17099933.813 10 0 55923 54000.00000 0 17729963.104 11053512.886 -14775661.286 10 0 55923 54900.00000 0 18919973.771 12211239.441 -12167118.746 10 0 55923 55800.00000 0 19957679.081 13039987.481 -9324622.349 10 0 55923 56700.00000 0 20785218.202 13551279.299 -6302894.773 10 0 55923 57600.00000 0 21350106.458 13768592.320 -3160039.204 10 0 55923 58500.00000 0 21607499.128 13726143.593 43545.281 10 0 55923 59400.00000 0 21522159.781 13467243.141 3246289.022 10 0 55923 60300.00000 0 21070053.157 13042283.572 6386599.378 10 0 55923 61200.00000 0 20239497.174 12506447.628 9404011.650 10 0 55923 62100.00000 0 19031825.758 11917226.761 12240324.177 10 0 55923 63000.00000 0 17461533.135 11331851.606 14840698.435 10 0 55923 63900.00000 0 15555890.665 10804739.353 17154704.842 10 0 55923 64800.00000 0 13354048.106 10385063.082 19137295.576 10 0 55923 65700.00000 0 10905651.880 10114544.101 20749686.107 10 0 55923 66600.00000 0 8269032.787 10025560.334 21960128.058 10 0 55923 67500.00000 0 5509033.493 10139651.903 22744557.209 10 0 55923 68400.00000 0 2694561.748 10466489.691 23087102.014 10 0 55923 69300.00000 0 -104032.297 11003354.339 22980439.819 10 0 55923 70200.00000 0 -2817647.649 11735152.340 22425990.448 10 0 55923 71100.00000 0 -5381081.588 12634973.595 21433939.457 10 0 55923 72000.00000 0 -7735525.019 13665171.664 20023086.644 10 0 55923 72900.00000 0 -9830797.903 14778925.132 18220518.953 10 0 55923 73800.00000 0 -11627228.311 15922216.956 16061110.844 10 0 55923 74700.00000 0 -13097092.798 17036149.334 13586859.448 10 0 55923 75600.00000 0 -14225554.220 18059495.771 10846066.060 10 0 55923 76500.00000 0 -15011054.631 18931380.250 7892379.773 10 0 55923 77400.00000 0 -15465144.783 19593966.565 4783723.145 10 0 55923 78300.00000 0 -15611756.990 19995039.522 1581123.217 10 0 55923 79200.00000 0 -15485953.199 20090363.876 -1652525.836 10 0 55923 80100.00000 0 -15132203.885 19845716.515 -4853740.031 10 0 55923 81000.00000 0 -14602274.675 19238502.139 -7959733.358 10 0 55923 81900.00000 0 -13952815.133 18258881.593 -10909686.462 10 0 55923 82800.00000 0 -13242757.106 16910364.261 -13645967.318 10 0 55923 83700.00000 0 -12530637.848 15209840.239 -16115277.024 10 0 55923 84600.00000 0 -11871965.397 13187053.058 -18269696.367 10 0 55923 85500.00000 0 -11316740.493 10883538.470 -20067612.019 10 0 55924 0.00000 0 -10907240.970 8351077.738 -21474505.004 10 0 55924 900.00000 0 -10676161.912 5649733.876 -22463588.144 10 0 55924 1800.00000 0 -10645187.066 2845557.023 -23016282.655 10 0 55924 2700.00000 0 -10824049.741 8056.388 -23122528.815 10 0 55924 3600.00000 0 -11210116.799 -2792454.530 -22780928.506 10 0 55924 4500.00000 0 -11788509.765 -5487529.474 -21998721.093 10 0 55924 5400.00000 0 -12532753.034 -8013168.859 -20791597.094 10 0 55924 6300.00000 0 -13405918.454 -10312203.469 -19183356.544 10 0 55924 7200.00000 0 -14362215.610 -12336387.902 -17205421.297 10 0 55924 8100.00000 0 -15348959.862 -14048122.063 -14896212.342 10 0 55924 9000.00000 0 -16308835.790 -15421734.576 -12300404.814 10 0 55924 9900.00000 0 -17182362.617 -16444279.671 -9468074.849 10 0 55924 10800.00000 0 -17910460.802 -17115818.729 -6453753.532 10 0 55924 11700.00000 0 -18437015.531 -17449177.859 -3315404.168 10 0 55924 12600.00000 0 -18711333.197 -17469193.406 -113340.110 10 0 55924 13500.00000 0 -18690391.337 -17211477.306 3090899.032 10 0 55924 14400.00000 0 -18340790.549 -16720752.956 6235694.399 10 0 55924 15300.00000 0 -17640328.385 -16048829.109 9260499.128 10 0 55924 16200.00000 0 -16579129.873 -15252293.793 12106974.718 10 0 55924 17100.00000 0 -15160286.382 -14390021.566 14720093.303 10 0 55924 18000.00000 0 -13399973.794 -13520595.374 17049186.569 10 0 55924 18900.00000 0 -11327041.354 -12699748.400 19048922.538 10 0 55924 19800.00000 0 -8982083.621 -11977931.299 20680191.963 10 0 55924 20700.00000 0 -6416028.976 -11398106.235 21910886.840 10 0 55924 21600.00000 0 -3688297.995 -10993860.878 22716554.846 10 0 55924 22500.00000 0 -864603.199 -10787923.548 23080914.946 10 0 55924 23400.00000 0 1985522.451 -10791145.012 22996221.310 10 0 55924 24300.00000 0 4791368.619 -11001993.832 22463465.023 10 0 55924 25200.00000 0 7483753.840 -11406591.062 21492405.805 10 0 55924 26100.00000 0 9997682.219 -11979287.434 20101429.107 10 0 55924 27000.00000 0 12274838.416 -12683762.836 18317227.568 10 0 55924 27900.00000 0 14265814.121 -13474604.798 16174309.685 10 0 55924 28800.00000 0 15931969.350 -14299301.105 13714342.795 10 0 55924 29700.00000 0 17246846.851 -15100562.449 10985341.748 10 0 55924 30600.00000 0 18197076.736 -15818875.343 8040718.823 10 0 55924 31500.00000 0 18782730.558 -16395174.180 4938214.634 10 0 55924 32400.00000 0 19017108.492 -16773515.090 1738733.190 10 0 55924 33300.00000 0 18925968.729 -16903633.414 -1494892.785 10 0 55924 34200.00000 0 18546233.326 -16743271.532 -4699177.879 10 0 55924 35100.00000 0 17924228.552 -16260174.029 -7811271.977 10 0 55924 36000.00000 0 17113538.569 -15433662.355 -10770230.553 10 0 55924 36900.00000 0 16172568.405 -14255720.465 -13518238.352 10 0 55924 37800.00000 0 15161924.507 -12731545.225 -16001759.448 10 0 55924 38700.00000 0 14141728.303 -10879539.556 -18172589.185 10 0 55924 39600.00000 0 13168979.864 -8730751.178 -19988786.696 10 0 55924 40500.00000 0 12295085.045 -6327783.926 -21415470.450 10 0 55924 41400.00000 0 11563650.706 -3723231.060 -22425463.226 10 0 55924 42300.00000 0 11008639.538 -977699.785 -22999776.819 10 0 55924 43200.00000 0 10652959.173 1842487.687 -23127930.801 10 0 55924 44100.00000 0 10507540.790 4667818.947 -22808103.245 10 0 55924 45000.00000 0 10570941.113 7428236.609 -22047114.683 10 0 55924 45900.00000 0 10829479.607 10055795.175 -20860249.546 10 0 55924 46800.00000 0 11257900.576 12487221.850 -19270921.941 10 0 55924 47700.00000 0 11820528.772 14666278.770 -17310194.856 10 0 55924 48600.00000 0 12472867.634 16545833.283 -15016163.799 10 0 55924 49500.00000 0 13163572.108 18089555.453 -12433217.487 10 0 55924 50400.00000 0 13836713.735 19273177.222 -9611189.636 10 0 55924 51300.00000 0 14434244.682 20085265.413 -6604417.091 10 0 55924 52200.00000 0 14898560.021 20527480.010 -3470720.438 10 0 55924 53100.00000 0 15175054.038 20614309.289 -270324.335 10 0 55924 54000.00000 0 15214566.745 20372293.919 2935264.681 10 0 55924 54900.00000 0 14975621.017 19838772.037 6084404.515 10 0 55924 55800.00000 0 14426358.889 19060196.147 9116468.999 10 0 55924 56700.00000 0 13546096.998 18090089.584 11972985.469 10 0 55924 57600.00000 0 12326435.807 16986724.838 14598739.157 10 0 55924 58500.00000 0 10771874.545 15810617.423 16942825.193 10 0 55924 59400.00000 0 8899903.029 14621937.017 18959629.349 10 0 55924 60300.00000 0 6740562.194 13477941.691 20609719.274 10 0 55924 61200.00000 0 4335486.528 12430541.122 21860628.653 10 0 55924 62100.00000 0 1736462.699 11524090.538 22687518.047 10 0 55924 63000.00000 0 -996441.193 10793508.779 23073697.561 10 0 55924 63900.00000 0 -3797102.731 10262801.681 23010998.396 10 0 55924 64800.00000 0 -6595839.969 9944056.013 22499982.658 10 0 55924 65700.00000 0 -9322072.628 9836950.240 21549983.479 10 0 55924 66600.00000 0 -11907039.758 9928807.038 20178970.697 10 0 55924 67500.00000 0 -14286459.997 10195189.395 18413240.851 10 0 55924 68400.00000 0 -16403021.324 10601018.603 16286934.206 10 0 55924 69300.00000 0 -18208592.961 11102169.180 13841385.638 10 0 55924 70200.00000 0 -19666063.003 11647474.102 11124320.578 10 0 55924 71100.00000 0 -20750720.785 12181054.678 8188911.340 10 0 55924 72000.00000 0 -21451122.396 12644873.987 5092713.386 10 0 55924 72900.00000 0 -21769400.577 12981401.900 1896504.494 10 0 55924 73800.00000 0 -21721004.950 13136274.033 -1336947.143 10 0 55924 74700.00000 0 -21333884.175 13060826.805 -4544157.636 10 0 55924 75600.00000 0 -20647146.954 12714396.293 -7662215.526 10 0 55924 76500.00000 0 -19709262.164 12066279.360 -10630053.669 10 0 55924 77400.00000 0 -18575878.928 11097271.211 -13389675.896 10 0 55924 78300.00000 0 -17307363.936 9800713.009 -15887311.278 10 0 55924 79200.00000 0 -15966164.972 8183005.557 -18074471.416 10 0 55924 80100.00000 0 -14614116.129 6263569.139 -19908889.235 10 0 55924 81000.00000 0 -13309801.167 4074254.034 -21355321.579 10 0 55924 81900.00000 0 -12106087.315 1658229.924 -22386201.786 10 0 55924 82800.00000 0 -11047932.677 -931595.570 -22982132.401 10 0 55924 83700.00000 0 -10170557.156 -3634559.914 -23132212.108 10 0 55924 84600.00000 0 -9498049.913 -6384545.177 -22834194.667 10 0 55924 85500.00000 0 -9042467.146 -9112497.003 -22094480.934 10 0 55925 0.00000 0 -8803452.711 -11749058.605 -20927948.143 10 0 55925 900.00000 0 -8768392.555 -14227212.115 -19357622.991 10 0 55925 1800.00000 0 -8913091.516 -16484820.498 -17414207.944 10 0 55925 2700.00000 0 -9202941.358 -18466968.388 -15135471.141 10 0 55925 3600.00000 0 -9594528.117 -20128009.925 -12565512.825 10 0 55925 4500.00000 0 -10037611.191 -21433242.683 -9753922.136 10 0 55925 5400.00000 0 -10477391.600 -22360143.149 -6754839.454 10 0 55925 6300.00000 0 -10856976.195 -22899116.091 -3625940.402 10 0 55925 7200.00000 0 -11119937.186 -23053729.461 -427358.682 10 0 55925 8100.00000 0 -11212862.734 -22840426.647 2779434.513 10 0 55925 9000.00000 0 -11087794.770 -22287728.251 5932776.142 10 0 55925 9900.00000 0 -10704454.421 -21434955.580 8971963.049 10 0 55925 10800.00000 0 -10032163.496 -20330526.927 11838390.722 10 0 55925 11700.00000 0 -9051381.989 -19029894.687 14476659.802 10 0 55925 12600.00000 0 -7754796.344 -17593205.994 16835631.090 10 0 55925 13500.00000 0 -6147910.562 -16082781.075 18869410.211 10 0 55925 14400.00000 0 -4249111.674 -14560511.563 20538243.604 10 0 55925 15300.00000 0 -2089202.060 -13085285.186 21809308.283 10 0 55925 16200.00000 0 289587.430 -11710543.240 22657378.997 10 0 55925 17100.00000 0 2835068.229 -10482072.986 23065357.950 10 0 55925 18000.00000 0 5486992.793 -9436128.699 23024653.957 10 0 55925 18900.00000 0 8179306.984 -8597962.497 22535400.338 10 0 55925 19800.00000 0 10842665.748 -7980829.935 21606503.455 10 0 55925 20700.00000 0 13407109.118 -7585516.040 20255516.963 10 0 55925 21600.00000 0 15804787.262 -7400405.663 18508340.371 10 0 55925 22500.00000 0 17972619.448 -7402098.729 16398744.382 10 0 55925 23400.00000 0 19854772.978 -7556547.106 13967729.710 10 0 55925 24300.00000 0 21404854.615 -7820666.421 11262730.258 10 0 55925 25200.00000 0 22587718.465 -8144354.488 8336675.880 10 0 55925 26100.00000 0 23380810.309 -8472829.150 5246934.013 10 0 55925 27000.00000 0 23774988.634 -8749183.205 2054153.039 10 0 55925 27900.00000 0 23774785.727 -8917043.730 -1178966.765 10 0 55925 28800.00000 0 23398097.367 -8923217.959 -4388946.503 10 0 55925 29700.00000 0 22675315.460 -8720208.374 -7512816.789 10 0 55925 30600.00000 0 21647943.065 -8268485.705 -10489391.114 10 0 55925 31500.00000 0 20366754.399 -7538419.919 -13260495.344 10 0 55925 32400.00000 0 18889582.381 -6511785.205 -15772126.161 10 0 55925 33300.00000 0 17278832.092 -5182774.614 -17975513.651 10 0 55925 34200.00000 0 15598829.568 -3558482.460 -19828066.363 10 0 55925 35100.00000 0 13913121.130 -1658836.297 -21294180.958 10 0 55925 36000.00000 0 12281838.896 484015.558 -22345902.409 10 0 55925 36900.00000 0 10759243.516 2826831.660 -22963424.698 10 0 55925 37800.00000 0 9391545.780 5316869.561 -23135425.942 10 0 55925 38700.00000 0 8215095.303 7893873.087 -22859235.530 10 0 55925 39600.00000 0 7255007.820 10492369.904 -22140834.230 10 0 55925 40500.00000 0 6524283.321 13044183.156 -20994691.258 10 0 55925 41400.00000 0 6023446.445 15481053.551 -19443444.896 10 0 55925 42300.00000 0 5740719.024 17737264.945 -17517435.597 10 0 55925 43200.00000 0 5652713.090 19752167.774 -15254102.366 10 0 55925 44100.00000 0 5725612.066 21472499.598 -12697254.889 10 0 55925 45000.00000 0 5916788.824 22854410.865 -9896235.348 10 0 55925 45900.00000 0 6176792.337 23865116.244 -6904984.994 10 0 55925 46800.00000 0 6451620.619 24484106.880 -3781031.593 10 0 55925 47700.00000 0 6685186.645 24703876.273 -584414.823 10 0 55925 48600.00000 0 6821876.589 24530131.627 2623432.625 10 0 55925 49500.00000 0 6809096.123 23981482.548 5780829.911 10 0 55925 50400.00000 0 6599700.812 23088619.447 8826999.965 10 0 55925 51300.00000 0 6154210.950 21893014.059 11703209.337 10 0 55925 52200.00000 0 5442719.127 20445193.384 14353876.761 10 0 55925 53100.00000 0 4446410.569 18802655.546 16727631.141 10 0 55925 54000.00000 0 3158631.010 17027510.729 18778300.097 10 0 55925 54900.00000 0 1585454.411 15183941.979 20465810.710 10 0 55925 55800.00000 0 -254277.415 13335588.787 21756984.840 10 0 55925 56700.00000 0 -2329450.166 11542960.553 22626212.619 10 0 55925 57600.00000 0 -4597692.503 9860986.918 23055989.146 10 0 55925 58500.00000 0 -7006874.914 8336807.686 23037301.216 10 0 55925 59400.00000 0 -9497034.779 7007896.303 22569853.261 10 0 55925 60300.00000 0 -12002651.618 5900598.064 21662124.239 10 0 55925 61200.00000 0 -14455180.406 5029147.761 20331250.437 10 0 55925 62100.00000 0 -16785738.432 4395211.735 18602732.580 10 0 55925 63000.00000 0 -18927832.997 3987977.148 16509969.540 10 0 55925 63900.00000 0 -20820013.642 3784787.733 14093625.103 10 0 55925 64800.00000 0 -22408334.523 3752301.038 11400838.519 10 0 55925 65700.00000 0 -23648519.500 3848118.799 8484293.793 10 0 55925 66600.00000 0 -24507734.545 4022820.353 5401166.818 10 0 55925 67500.00000 0 -24965889.013 4222310.401 2211973.039 10 0 55925 68400.00000 0 -25016407.960 4390377.608 -1020658.636 10 0 55925 69300.00000 0 -24666441.328 4471350.733 -4233257.600 10 0 55925 70200.00000 0 -23936501.298 4412734.336 -7362799.637 10 0 55925 71100.00000 0 -22859544.844 4167707.227 -10347981.712 10 0 55925 72000.00000 0 -21479543.492 3697373.476 -13130454.301 10 0 55925 72900.00000 0 -19849604.967 2972667.521 -15655983.932 10 0 55925 73800.00000 0 -18029730.751 1975831.199 -17875521.030 10 0 55925 74700.00000 0 -16084308.835 701400.311 -19746151.184 10 0 55925 75600.00000 0 -14079451.164 -843339.387 -21231911.815 10 0 55925 76500.00000 0 -12080290.440 -2638443.379 -22304459.957 10 0 55925 77400.00000 0 -10148350.963 -4651939.473 -22943580.968 10 0 55925 78300.00000 0 -8339103.097 -6840968.765 -23137531.867 10 0 55925 79200.00000 0 -6699801.373 -9153385.460 -22883216.726 10 0 55925 80100.00000 0 -5267692.885 -11529746.131 -22186194.912 10 0 55925 81000.00000 0 -4068665.901 -13905604.044 -21060526.028 10 0 55925 81900.00000 0 -3116389.569 -16214012.922 -19528458.031 10 0 55925 82800.00000 0 -2411975.139 -18388137.105 -17619967.336 10 0 55925 83700.00000 0 -1944167.681 -20363862.098 -15372161.629 10 0 55925 84600.00000 0 -1690056.098 -22082300.485 -12828557.778 10 0 55925 85500.00000 0 -1616268.831 -23492093.016 -10038248.711 10 0 55926 0.00000 0 -1680603.700 -24551413.604 -7054974.343 10 0 55926 900.00000 0 -1834023.513 -25229598.683 -3936112.205 10 0 55926 1800.00000 0 -2022935.220 -25508337.069 -741605.838 10 0 55926 2700.00000 0 -2191658.983 -25382372.140 2467152.696 10 0 55926 3600.00000 0 -2284986.731 -24859689.538 5628466.850 10 0 55926 4500.00000 0 -2250725.631 -23961181.452 8681487.686 10 0 55926 5400.00000 0 -2042122.461 -22719800.480 11567354.830 10 0 55926 6300.00000 0 -1620069.050 -21179235.572 14230307.079 10 0 55926 7200.00000 0 -954997.048 -19392161.845 16618743.339 10 0 55926 8100.00000 0 -28381.980 -17418133.237 18686215.000 10 0 55926 9000.00000 0 1166208.493 -15321201.757 20392331.395 10 0 55926 9900.00000 0 2622569.432 -13167358.936 21703560.615 10 0 55926 10800.00000 0 4321844.048 -11021903.126 22593909.287 10 0 55926 11700.00000 0 6233045.778 -8946840.510 23045466.225 10 0 55926 12600.00000 0 8314100.921 -6998427.615 23048796.712 10 0 55926 13500.00000 0 10513373.889 -5224958.557 22603176.460 10 0 55926 14400.00000 0 12771616.259 -3664891.310 21716656.877 10 0 55926 15300.00000 0 15024261.819 -2345394.271 20405956.412 10 0 55926 16200.00000 0 17203973.831 -1281377.428 18696176.213 10 0 55926 17100.00000 0 19243338.398 -475052.334 16620342.195 10 0 55926 18000.00000 0 21077589.773 83957.364 14218779.762 10 0 55926 18900.00000 0 22647250.554 417957.127 11538331.704 10 0 55926 19800.00000 0 23900572.067 560001.175 8631434.006 10 0 55926 20700.00000 0 24795667.762 552240.721 5555068.500 10 0 55926 21600.00000 0 25302245.457 443872.681 2369614.872 10 0 55926 22500.00000 0 25402861.631 288779.094 -862372.416 10 0 55926 23400.00000 0 25093642.231 142961.820 -4077434.255 10 0 55926 24300.00000 0 24384438.538 61886.503 -7212494.838 10 0 55926 25200.00000 0 23298412.112 97853.728 -10206137.736 10 0 55926 26100.00000 0 21871068.601 297513.623 -12999840.947 10 0 55926 27000.00000 0 20148784.738 699633.048 -15539143.466 10 0 55926 27900.00000 0 18186895.029 1333212.324 -17774718.326 10 0 55926 28800.00000 0 16047423.392 2216031.937 -19663330.093 10 0 55926 29700.00000 0 13796559.458 3353689.869 -21168658.530 10 0 55926 30600.00000 0 11501988.837 4739168.027 -22261974.013 10 0 55926 31500.00000 0 9230191.338 6352942.859 -22922654.244 10 0 55926 32400.00000 0 7043820.528 8163631.929 -23138535.799 10 0 55926 33300.00000 0 4999272.720 10129145.698 -22906097.770 10 0 55926 34200.00000 0 3144543.905 12198293.180 -22230478.116 10 0 55926 35100.00000 0 1517459.580 14312772.164 -21125326.465 10 0 55926 36000.00000 0 144345.997 16409459.963 -19612499.709 10 0 55926 36900.00000 0 -960807.453 18422909.478 -17721609.110 10 0 55926 37800.00000 0 -1796665.311 20287948.242 -15489429.551 10 0 55926 38700.00000 0 -2374334.302 21942275.001 -12959183.244 10 0 55926 39600.00000 0 -2716635.363 23328949.253 -10179711.684 10 0 55926 40500.00000 0 -2856892.392 24398674.136 -7204550.836 10 0 55926 41400.00000 0 -2837289.455 25111781.630 -4090925.526 10 0 55926 42300.00000 0 -2706864.781 25439840.886 -898680.084 10 0 55926 43200.00000 0 -2519224.105 25366825.485 2310837.131 10 0 55926 44100.00000 0 -2330066.724 24889792.577 5475917.002 10 0 55926 45000.00000 0 -2194625.151 24019045.928 8535641.834 10 0 55926 45900.00000 0 -2165122.912 22777775.077 11431027.364 10 0 55926 46800.00000 0 -2288354.726 21201183.338 14106135.336 10 0 55926 47700.00000 0 -2603489.070 19335137.691 16509137.341 10 0 55926 48600.00000 0 -3140184.969 17234392.789 18593311.009 10 0 55926 49500.00000 0 -3917103.061 14960458.637 20317950.118 10 0 55926 50400.00000 0 -4940875.833 12579196.591 21649170.915 10 0 55926 51300.00000 0 -6205583.968 10158240.038 22560598.116 10 0 55926 52200.00000 0 -7692765.663 7764344.363 23033915.475 10 0 55926 53100.00000 0 -9371963.937 5460775.042 23059267.564 10 0 55926 54000.00000 0 -11201794.734 3304842.416 22635501.692 10 0 55926 54900.00000 0 -13131496.351 1345686.991 21770241.499 10 0 55926 55800.00000 0 -15102899.651 -377589.996 20479786.791 10 0 55926 56700.00000 0 -17052739.534 -1837369.555 18788837.740 10 0 55926 57600.00000 0 -18915212.192 -3018467.590 16730045.311 10 0 55926 58500.00000 0 -20624670.403 -3918553.793 14343393.984 10 0 55926 59400.00000 0 -22118341.671 -4548016.388 11675427.074 10 0 55926 60300.00000 0 -23338951.497 -4929276.655 8778329.170 10 0 55926 61200.00000 0 -24237137.011 -5095581.708 5708884.417 10 0 55926 62100.00000 0 -24773544.602 -5089327.701 2527332.984 10 0 55926 63000.00000 0 -24920518.721 -4959987.110 -703848.881 10 0 55926 63900.00000 0 -24663307.054 -4761731.868 -3921217.263 10 0 55926 64800.00000 0 -24000729.050 -4550858.033 -7061648.296 10 0 55926 65700.00000 0 -22945279.016 -4383126.546 -10063615.483 10 0 55926 66600.00000 0 -21522660.589 -4311137.942 -12868427.389 10 0 55926 67500.00000 0 -19770774.884 -4381856.691 -15421398.184 10 0 55926 68400.00000 0 -17738208.734 -4634393.206 -17672925.816 10 0 55926 69300.00000 0 -15482291.073 -5098138.993 -19579455.639 10 0 55926 70200.00000 0 -13066803.578 -5791333.761 -21104311.021 10 0 55926 71100.00000 0 -10559445.354 -6720123.463 -22218376.343 10 0 55926 72000.00000 0 -8029160.650 -7878146.157 -22900621.693 10 0 55926 72900.00000 0 -5543442.489 -9246659.554 -23138462.674 10 0 55926 73800.00000 0 -3165724.254 -10795201.051 -22927952.331 10 0 55926 74700.00000 0 -952965.929 -12482748.868 -22273805.701 10 0 55926 75600.00000 0 1046468.235 -14259332.773 -21189260.564 10 0 55926 76500.00000 0 2794557.071 -16068025.131 -19695780.599 10 0 55926 77400.00000 0 4264927.605 -17847228.444 -17822609.574 10 0 55926 78300.00000 0 5443669.311 -19533164.642 -15606187.086 10 0 55926 79200.00000 0 6329628.905 -21062464.234 -13089438.118 10 0 55926 80100.00000 0 6934177.895 -22374750.251 -10320950.128 10 0 55926 81000.00000 0 7280465.911 -23415112.873 -7354052.581 10 0 55926 81900.00000 0 7402193.008 -24136375.392 -4245814.884 10 0 55926 82800.00000 0 7341952.700 -24501060.639 -1055979.691 10 0 55926 83700.00000 0 7149214.291 -24482978.892 2154150.788 10 0 55926 84600.00000 0 6878027.084 -24068373.095 5322857.206 10 0 55926 85500.00000 0 6584539.996 -23256574.442 8389155.332 99